SCP
0 0 0 0 0 0 -0 0 0 0 0 0 0 0 0 0 0 0 0 0 -0 -0 -0 -0 0 0 -0 0 0 0 0 0 0 0 0 -0 -0 0 -0 -0 -0 -0 -0 -0 -0 -0 -0 -0 -0
0 0 0 0 0 0 -0 0 0 0 0 0 0 0 0 0 0 0 0 0 -0 -0 -0 0 0 0 0 0 0 0 0 0 0 0 0 -0 -0 0 -0 -0 -0 -0 -0 -0 -0 -0 -0 -0 -0
0 0 0 0 0 -0 -0 0 -0 0 0 0 0 0 0 0 0 0 0 -0 -0 -0 -0 0 0 0 0 0 0 0 0 0 0 0 0 -0 -0 0 0 -0 -0 -0 -0 -0 -0 -0 -0 -0 0
0 0 0 0 -0 -0 0 0 0 0 0 0 0 0 0 0 0 0 0 -0 -0 -0 -0 0 0 0 0 0 0 0 0 0 0 0 0 0 0 0 -0 -0 -0 -0 -0 -0 -0 -0 0 0 0
0 0 0 0 -0 -0 0 0 0 0 0 0 0 0 0 0 0 0 0 0 -0 0 0 0 0 0 0 0 0 0 0 0 0 0 0 0 0 0 0 0 -0 -0 -0 -0 0 0 0 0 -0
0 0 0 0 0 0 0 0 0 0 0 0 0 0 0 0 0 0 0 0 0 0 0 0 0 0 0 0 0 0 0 0 0 0 0 0 0 0 0 0 0 -0 0 0 0 0 -0 -0 -0
0 0 0 0 0 0 0 0 0 0 0 0 0 0 0 0 0 0 0 0 0 0 0 0 0 0 0 0 0 0 0 0 0 0 0 0 0 0 0 0 0 0 0 0 0 0 -0 -0 -0
0 0 0 0 0 0 0 0 0 0 0 0 0 0 0 0 0 0 0 0 0 0 0 0 0 0 0 0 0 0 0 0 0 0 0 0 0 0 0 0 0 0 0 0 0 0 -0 -0 -0
0 0 0 0 0 0 0 0 0 0 0 0 0 0 0 0 0 0 0 0 0 0 0 0 0 0 0 0 0 0 0 0 0 0 0 0 0 0 0 0 0 0 0 0 0 -0 -0 -0 -0
0 0 0 0 0 0 0 0 0 0 0 0 0 0 0 0 0 0 0 0 0 0 0 0 0 0 0 0 0 0 0 0 0 0 0 0 0 0 0 0 0 0 0 0 0 -0 -0 -0 0
0 0 0 0 0 0 0 0 0 0 0 0 0 0 0 0 0 0 0 0 0 0 0 0 0 0 0 0 0 0 0 0 0 0 0 0 0 0 0 0 0 0 0 0 0 0 0 0 0
0 0 0 0 0 0 0 0 0 0 0 0 0 0 0 0 0 0 0 0 0 0 0 0 0 0 0 0 0 0 0 0 0 0 0 0 0 0 0 0 0 0 0 0 0 0 0 0 0
0 0 0 0 0 0 0 0 0 0 0 0 0 0 0 0 0 0 0 0 0 0 0 0 0 0 0 0 0 0 0 0 0 0 0 0 0 0 0 0 0 0 0 0 0 0 0 0 0
0 0 0 0 0 0 0 0 0 0 0 0 0 0 0 0 0 0 0 0 0 0 0 0 0 0 0 0 0 0 0 0 0 0 0 0 0 0 0 0 0 0 0 0 0 0 0 0 0
0 0 0 0 0 0 0 0 0 0 0 0 0 0 0 0 0 0 0 0 0 0 0 0 0 0 0 0 0 0 0 0 0 0 0 0 0 0 0 0 0 0 0 0 0 0 0 0 0
0 0 0 0 0 0 0 0 0 0 0 0 0 0 -0 -0 0 0 0 0 0 0 0 0 0 0 0 0 0 0 0 0 0 0 0 0 0 0 0 0 0 0 0 0 0 0 0 0 0
0 0 0 0 0 0 0 0 0 0 0 0 0 0 -0 -0 0 0 0 0 0 0 0 0 0 0 0 0 0 0 0 0 0 0 0 0 0 0 0 0 0 0 0 0 0 0 0 0 0
0 0 0 0 0 0 0 0 0 0 0 0 0 0 0 0 0 0 0 0 0 0 0 0 0 0 0 0 0 0 0 0 0 0 0 0 0 0 0 0 0 0 0 0 0 0 0 0 0
0 0 0 0 0 0 0 0 0 0 0 0 0 0 0 0 0 0 0 0 0 0 0 0 0 0 0 0 0 0 0 0 0 0 0 0 0 0 0 0 0 0 0 0 0 0 0 0 0
0 0 0 0 0 0 -0 -0 0 0 0 0 0 0 0 0 0 0 0 0 0 0 0 0 0 0 0 0 0 0 0 0 0 0 0 0 0 0 0 0 0 0 0 0 0 0 0 0 0
0 0 0 0 0 0 0 -0 -0 -0 -0 0 0 0 0 0 0 0 0 0 0 0 0 0 0 0 0 0 0 0 0 0 0 0 0 0 0 0 0 0 0 0 0 0 0 0 0 0 0
0 0 0 0 0 0 0 0 -0 -0 -0 0 0 0 0 0 0 0 0 0 0 0 0 0 0 0 0 0 0 0 0 0 0 0 0 0 0 0 0 0 0 0 0 0 0 0 0 0 0
0 -0 0 0 0 -0 0 -0 0 0 0 0 0 0 0 0 0 0 0 0 0 0 0 0 0 0 0 0 0 0 0 0 0 0 0 0 0 0 0 0 0 0 0 0 0 0 0 0 0
0 0 0 0 0 -0 0 -0 0 0 0 0 0 0 0 0 0 0 0 0 0 0 0 0 0 0 0 0 0 0 0 0 0 0 0 0 0 0 0 0 0 0 0 0 0 0 0 0 0
-0 -0 0 0 0 -0 -0 0 -0 0 0 0 0 0 -0 0 0 0 0 0 0 0 0 0 0 0 0 0 0 0 0 0 0 0 0 0 0 0 0 0 0 0 0 0 0 0 0 0 0
-0 -0 0 -0 0 -0 -0 -0 0 0 0 0 0 0 0 0 0 0 0 0 0 0 0 0 0 0 0 0 0 0 0 0 0 0 0 0 0 0 0 0 0 0 0 0 0 0 0 0 0
0 0 -0 0 -0 -0 -0 0 0 -0 -0 -0 0 0 0 0 0 0 0 0 0 -0 0 0 0 0 0 0 0 0 0 0 0 0 0 0 0 0 0 0 0 0 0 0 0 0 0 0 0
0 0 0 0 0 0 0 0 -0 -0 -0 -0 -0 0 0 -0 -0 -0 -0 -0 -0 -0 -0 -0 -0 -0 -0 0 0 0 0 0 0 0 0 0 0 0 0 0 0 0 0 0 0 0 0 0 0
0 0 0 0 0 0 0 0 0 0 0 0 0 -0 0 0 0 -0 -0 -0 -0 -0 -0 -0 -0 -0 -0 -0 -0 -0 -0 -0 0 0 0 0 0 0 0 0 0 0 0 0 0 0 0 0 0
0 0 0 0 0 0 0 0 0 0 0 0 0 -0 -0 -0 -0 -0 -0 -0 -0 -0 -0 -0 -0 -0 -0 -0 -0 -0 -0 0 0 0 0 0 0 0 0 0 0 0 0 0 0 0 0 0 0
Wind_Speed_500mb
12 8 5 3 11 10 24 16 16 15 7 3 5 9 13 19 8 4 9 37 52 62 61 59 50 42 35 41 45 39 35 34 33 30 22 15 11 8 8 11 13 23 23 21 19 19 17 15 14
13 9 6 5 14 22 28 26 28 24 12 2 9 14 16 16 8 5 18 43 56 62 59 60 53 47 42 49 48 44 39 34 31 25 20 15 13 12 14 13 16 20 21 19 18 15 13 11 10
13 12 12 9 22 36 26 19 27 16 15 20 9 8 7 4 7 5 15 46 66 63 58 60 55 49 45 51 47 44 37 33 28 24 20 17 15 15 17 17 17 19 18 16 15 12 9 7 7
10 7 8 21 44 37 40 16 13 12 11 11 7 12 6 14 4 11 24 48 63 62 59 59 56 51 48 50 48 43 37 31 27 24 19 18 18 19 19 20 19 18 17 14 12 9 6 4 4
17 8 22 32 55 44 19 17 14 11 4 8 10 4 7 14 16 16 30 49 60 66 60 60 56 51 49 48 45 41 36 30 26 21 20 20 20 21 20 19 18 18 16 13 11 8 6 3 2
18 12 23 41 49 32 25 31 28 29 32 19 15 24 15 18 19 25 31 47 55 68 62 62 56 50 47 49 44 39 36 29 24 22 23 22 21 22 22 19 18 16 14 12 10 7 4 3 1
23 19 39 49 40 35 20 29 34 35 47 43 22 21 15 21 27 32 35 46 53 65 56 60 59 51 46 46 46 41 35 28 23 23 23 23 23 24 22 20 18 14 13 12 9 7 5 4 2
9 9 23 28 30 44 30 28 27 30 37 31 21 18 34 19 36 40 41 49 50 62 56 51 53 52 45 45 44 41 34 28 25 25 24 23 25 26 23 21 18 15 13 12 10 8 7 6 4
5 12 20 27 32 25 17 17 21 19 25 30 16 20 20 17 41 45 49 49 53 61 66 50 53 49 44 43 44 40 32 27 25 25 24 21 21 22 21 20 18 15 13 12 10 9 8 7 5
15 10 13 12 9 15 21 27 26 23 26 29 26 30 34 26 47 57 63 61 62 60 62 55 55 61 51 49 47 42 36 30 28 27 25 22 23 23 21 20 18 17 15 13 12 11 10 8 7
6 13 14 21 30 29 29 31 33 31 36 27 25 25 30 30 50 59 56 55 59 57 55 55 51 57 62 57 52 45 36 34 31 29 27 25 23 23 21 20 18 17 15 13 13 11 10 10 10
13 20 21 18 29 22 25 37 42 44 37 27 32 34 29 41 58 65 54 54 56 58 57 58 52 55 63 58 56 48 38 37 32 29 27 26 24 23 21 20 18 18 17 15 14 14 13 12 12
24 27 23 22 32 37 36 46 46 61 48 37 33 34 32 38 56 63 59 49 51 54 56 59 54 54 62 63 56 51 43 38 32 28 25 25 25 24 23 22 22 20 20 17 15 15 15 15 16
19 35 42 45 43 44 38 40 40 58 60 53 42 37 38 42 49 52 62 68 65 56 57 54 57 52 61 59 58 49 45 38 32 29 25 23 25 25 24 23 22 19 18 18 17 17 18 19 19
27 26 34 41 40 23 23 41 40 53 45 50 54 39 36 38 39 53 62 70 68 55 48 53 56 58 62 58 53 47 43 38 33 28 27 25 24 24 24 22 22 20 20 20 20 20 21 22 22
13 13 16 11 7 13 20 34 18 15 25 39 42 37 15 25 35 41 43 45 46 50 53 48 53 57 60 59 51 46 44 39 34 30 30 30 27 26 26 25 23 23 24 24 25 24 24 23 20
6 21 34 34 14 23 27 12 15 23 17 14 16 14 11 19 23 31 39 45 48 50 45 44 45 47 52 52 47 44 44 41 37 36 35 33 31 30 28 26 24 25 27 28 27 26 25 21 20
25 23 21 30 10 19 25 15 19 30 32 27 28 12 16 14 7 20 34 36 36 40 40 40 40 45 50 50 45 43 45 44 42 40 39 35 32 30 30 30 28 30 29 29 29 26 26 23 19
26 27 28 31 16 10 20 26 17 25 38 37 32 11 15 16 26 18 17 23 31 36 36 38 34 36 44 47 50 49 48 44 44 42 36 35 33 31 32 32 31 30 32 31 29 27 26 26 24
22 25 18 20 9 13 5 18 16 29 28 37 29 25 20 31 43 44 20 23 28 33 36 33 31 33 34 34 39 46 43 43 41 36 37 37 36 34 34 32 31 34 33 32 29 32 32 33 32
9 9 13 10 6 14 19 8 6 16 43 40 13 48 55 57 59 50 42 25 22 30 36 33 32 34 34 33 34 39 38 38 36 33 33 36 40 39 39 35 35 36 37 36 35 37 37 39 36
10 17 8 14 6 4 9 5 8 11 19 17 26 59 56 51 67 67 60 45 28 22 24 34 36 35 34 32 35 36 36 34 34 28 27 26 27 32 35 38 39 39 36 36 33 32 31 27 25
15 29 11 14 7 4 11 7 8 8 12 14 41 47 49 59 79 71 60 44 45 44 41 19 25 32 35 34 33 30 28 30 31 29 30 30 27 29 33 42 43 40 31 31 32 30 27 24 26
31 13 9 7 5 9 19 4 10 8 8 7 24 48 61 57 70 66 42 38 43 49 46 36 35 27 17 20 24 27 16 17 16 8 7 4 9 12 15 17 20 22 23 23 26 30 29 29 31
29 13 2 2 7 8 19 12 5 15 16 8 10 22 24 38 47 45 42 46 37 53 44 42 38 36 31 15 16 11 8 9 7 12 13 12 9 18 23 28 31 34 36 26 30 33 34 32 32
19 11 7 6 6 7 16 11 11 12 13 10 5 11 17 21 27 31 25 27 28 26 35 37 39 38 42 26 21 22 11 14 15 16 14 16 15 17 24 25 25 30 31 29 26 25 24 22 23
10 9 7 2 4 4 6 0 2 7 18 25 26 24 26 26 21 13 15 15 18 16 28 23 27 22 17 30 36 18 18 17 21 12 14 22 24 24 28 34 29 27 26 22 19 17 14 16 18
6 6 3 3 2 6 6 7 9 9 12 16 22 27 23 26 33 31 26 19 12 13 21 17 16 12 12 20 13 17 13 15 20 21 23 29 25 23 27 31 24 24 20 16 15 13 12 12 12
8 3 5 2 4 3 5 8 4 4 9 14 18 19 22 28 35 36 35 34 27 24 21 17 12 10 9 12 9 5 5 7 10 12 12 13 14 13 17 16 19 21 20 18 15 11 11 12 13
3 7 6 5 2 4 4 8 7 10 11 16 18 20 22 29 34 37 38 38 36 36 33 27 20 15 12 11 7 5 5 4 4 2 6 10 9 11 10 12 15 17 15 13 11 11 10 10 9
Wind_Direction_500mb
244 250 228 236 241 243 242 228 234 206 233 196 142 208 248 302 215 346 189 174 175 176 175 179 177 177 171 161 158 160 161 158 160 168 173 185 195 207 195 156 136 124 120 119 117 108 104 99 94
226 219 200 223 244 238 246 228 219 231 204 245 275 249 249 263 260 289 159 176 175 176 177 178 177 179 169 167 165 166 163 170 174 181 190 207 220 208 183 162 148 127 122 119 113 109 103 95 87
216 195 219 231 234 238 250 216 250 255 253 238 257 247 278 270 276 239 205 177 174 176 177 180 178 180 176 176 172 177 177 180 187 198 205 214 213 188 172 171 154 138 130 126 122 118 110 96 75
193 200 246 240 237 239 257 257 271 244 217 203 219 250 247 254 264 226 196 178 174 174 176 182 181 183 180 178 180 181 185 189 195 202 206 206 193 177 170 169 157 147 140 136 132 127 120 99 70
185 218 239 241 249 251 234 285 270 257 216 213 211 235 252 276 256 221 190 181 176 178 179 182 183 187 183 183 183 184 189 192 195 197 198 191 184 178 173 165 156 150 151 151 151 149 145 132 94
189 229 234 243 248 247 261 267 265 265 270 270 259 270 268 258 233 211 195 182 179 179 180 183 185 191 188 187 188 190 189 188 191 193 189 184 182 182 175 166 160 163 168 170 171 174 171 164 154
234 227 244 256 268 270 268 272 263 263 266 261 263 269 279 245 221 203 192 179 181 183 180 183 185 192 196 196 195 191 189 192 194 191 190 188 191 191 180 173 172 175 183 186 190 194 191 202 221
231 259 256 253 262 259 250 265 272 262 266 282 242 253 256 233 212 193 185 181 181 185 184 181 184 189 196 198 199 194 194 201 201 194 193 195 202 196 184 182 185 192 196 203 204 205 211 221 242
167 246 263 267 261 268 239 248 283 255 267 268 247 249 257 247 207 187 179 178 183 188 191 186 186 185 188 198 203 199 205 211 208 200 199 198 199 180 183 188 196 203 208 213 216 221 228 235 239
215 248 262 292 270 301 285 280 295 284 270 265 266 258 250 235 205 191 185 183 185 185 189 190 194 192 186 193 203 205 208 213 210 206 204 195 193 188 189 203 212 217 219 221 230 239 243 245 242
240 253 308 287 297 297 278 277 272 285 264 268 309 327 263 224 205 201 191 189 188 187 187 191 195 195 190 195 199 206 208 211 210 211 211 207 204 208 212 216 218 218 219 230 247 248 248 246 244
283 271 279 298 293 283 276 276 268 261 268 290 298 298 263 235 215 210 199 190 188 189 191 195 194 197 191 198 200 208 212 214 215 216 217 218 218 220 220 218 218 219 226 241 247 245 252 256 259
262 287 299 305 297 291 278 250 258 267 258 282 305 301 259 243 229 215 210 195 193 193 194 196 193 197 192 199 202 206 214 219 222 224 224 223 224 225 225 225 226 231 239 244 250 249 256 262 262
304 295 292 293 278 277 266 270 250 249 257 263 281 301 268 246 237 225 213 210 204 195 196 192 195 197 201 200 207 207 214 220 226 227 226 223 222 221 225 229 228 233 240 247 252 253 254 259 262
275 283 291 279 270 262 263 252 245 251 260 257 261 292 273 253 229 225 226 219 211 196 192 193 197 200 204 205 213 213 216 223 228 233 232 230 227 227 228 229 233 239 246 250 256 259 262 265 268
290 285 318 320 279 236 217 269 281 247 263 251 257 291 263 264 242 227 225 215 197 187 191 198 200 204 204 210 212 209 219 224 228 235 239 238 238 236 231 233 238 245 252 257 262 265 266 268 267
239 304 303 310 275 270 217 287 95 36 2 324 325 322 341 294 235 212 215 207 194 190 188 199 206 208 207 215 213 212 219 228 234 238 241 240 237 230 232 238 243 250 255 261 265 269 271 268 270
308 307 292 279 298 286 244 229 59 44 34 0 353 324 69 50 346 220 218 211 196 197 196 203 211 213 211 216 220 215 220 228 237 243 243 235 237 236 238 245 249 255 259 264 270 271 269 272 271
303 290 284 284 280 250 231 222 62 39 31 15 0 1 78 52 69 140 190 202 193 195 202 210 214 210 210 211 221 220 221 232 240 240 236 237 242 243 247 253 255 257 264 262 260 263 267 269 270
307 281 303 311 188 218 89 79 86 52 47 26 359 50 43 52 74 96 150 191 208 213 221 222 221 214 212 213 209 218 221 230 238 243 244 247 247 248 252 258 263 264 263 263 259 261 267 266 265
320 301 306 275 90 38 109 96 49 58 53 15 357 64 50 52 57 61 66 102 189 213 215 217 218 222 220 218 216 220 226 234 239 244 251 255 250 249 258 252 257 260 261 261 261 261 262 268 270
293 8 349 340 185 132 357 93 41 35 50 336 20 51 50 47 63 61 42 55 99 156 202 204 205 215 212 220 222 222 229 237 244 250 250 246 244 240 242 245 251 253 260 267 268 267 262 258 262
284 326 323 360 44 129 22 101 13 8 13 326 44 45 56 54 59 60 40 33 49 73 82 133 194 216 217 216 216 218 229 238 244 251 251 245 248 248 255 256 255 255 259 266 269 264 256 262 271
292 297 221 156 326 43 349 339 32 2 300 353 54 67 60 62 65 61 42 44 40 68 62 61 66 81 129 171 200 186 184 197 181 196 211 244 237 252 273 290 285 285 275 279 270 268 270 269 272
340 347 315 81 39 46 343 56 39 334 333 350 27 32 71 58 64 69 50 33 36 62 63 59 58 60 56 66 1 92 168 153 241 275 290 262 292 314 276 284 285 273 284 294 294 281 274 270 265
318 3 18 12 8 21 9 22 5 328 12 36 9 1 27 53 71 62 51 55 46 45 49 64 49 51 56 45 39 44 5 10 334 324 323 319 311 301 308 301 292 289 296 288 268 261 256 253 255
349 33 344 62 141 88 32 320 94 354 45 49 50 44 44 61 73 91 85 90 69 73 66 38 45 43 58 34 37 3 52 15 311 303 334 352 324 297 295 286 278 260 255 253 246 239 242 243 240
311 344 285 23 15 90 80 43 61 41 53 72 66 67 63 72 80 87 97 95 96 83 78 81 90 119 73 29 358 8 322 300 283 280 277 267 256 245 241 235 233 232 224 221 224 222 216 223 229
338 357 28 10 335 121 131 111 55 92 100 86 74 70 78 73 74 78 80 81 83 86 97 103 97 91 102 106 129 134 209 250 245 219 221 251 251 242 235 239 226 221 219 215 209 208 215 225 241
265 327 310 307 147 44 59 122 81 107 95 95 82 74 78 83 83 80 76 72 70 69 73 73 73 75 76 86 101 130 165 184 220 262 236 210 206 219 227 228 229 230 226 222 216 221 235 241 260
Wind_Speed_850mb
12 8 5 3 11 10 24 16 16 15 7 3 5 9 13 19 8 4 9 37 52 62 61 59 50 42 35 41 45 39 35 34 33 30 22 15 11 8 8 11 13 23 23 21 19 19 17 15 14
13 9 6 5 14 22 28 26 28 24 12 2 9 14 16 16 8 5 18 43 56 62 59 60 53 47 42 49 48 44 39 34 31 25 20 15 13 12 14 13 16 20 21 19 18 15 13 11 10
13 12 12 9 22 36 26 19 27 16 15 20 9 8 7 4 7 5 15 46 66 63 58 60 55 49 45 51 47 44 37 33 28 24 20 17 15 15 17 17 17 19 18 16 15 12 9 7 7
10 7 8 21 44 37 40 16 13 12 11 11 7 12 6 14 4 11 24 48 63 62 59 59 56 51 48 50 48 43 37 31 27 24 19 18 18 19 19 20 19 18 17 14 12 9 6 4 4
17 8 22 32 55 44 19 17 14 11 4 8 10 4 7 14 16 16 30 49 60 66 60 60 56 51 49 48 45 41 36 30 26 21 20 20 20 21 20 19 18 18 16 13 11 8 6 3 2
18 12 23 41 49 32 25 31 28 29 32 19 15 24 15 18 19 25 31 47 55 68 62 62 56 50 47 49 44 39 36 29 24 22 23 22 21 22 22 19 18 16 14 12 10 7 4 3 1
23 19 39 49 40 35 20 29 34 35 47 43 22 21 15 21 27 32 35 46 53 65 56 60 59 51 46 46 46 41 35 28 23 23 23 23 23 24 22 20 18 14 13 12 9 7 5 4 2
9 9 23 28 30 44 30 28 27 30 37 31 21 18 34 19 36 40 41 49 50 62 56 51 53 52 45 45 44 41 34 28 25 25 24 23 25 26 23 21 18 15 13 12 10 8 7 6 4
5 12 20 27 32 25 17 17 21 19 25 30 16 20 20 17 41 45 49 49 53 61 66 50 53 49 44 43 44 40 32 27 25 25 24 21 21 22 21 20 18 15 13 12 10 9 8 7 5
15 10 13 12 9 15 21 27 26 23 26 29 26 30 34 26 47 57 63 61 62 60 62 55 55 61 51 49 47 42 36 30 28 27 25 22 23 23 21 20 18 17 15 13 12 11 10 8 7
6 13 14 21 30 29 29 31 33 31 36 27 25 25 30 30 50 59 56 55 59 57 55 55 51 57 62 57 52 45 36 34 31 29 27 25 23 23 21 20 18 17 15 13 13 11 10 10 10
13 20 21 18 29 22 25 37 42 44 37 27 32 34 29 41 58 65 54 54 56 58 57 58 52 55 63 58 56 48 38 37 32 29 27 26 24 23 21 20 18 18 17 15 14 14 13 12 12
24 27 23 22 32 37 36 46 46 61 48 37 33 34 32 38 56 63 59 49 51 54 56 59 54 54 62 63 56 51 43 38 32 28 25 25 25 24 23 22 22 20 20 17 15 15 15 15 16
19 35 42 45 43 44 38 40 40 58 60 53 42 37 38 42 49 52 62 68 65 56 57 54 57 52 61 59 58 49 45 38 32 29 25 23 25 25 24 23 22 19 18 18 17 17 18 19 19
27 26 34 41 40 23 23 41 40 53 45 50 54 39 36 38 39 53 62 70 68 55 48 53 56 58 62 58 53 47 43 38 33 28 27 25 24 24 24 22 22 20 20 20 20 20 21 22 22
13 13 16 11 7 13 20 34 18 15 25 39 42 37 15 25 35 41 43 45 46 50 53 48 53 57 60 59 51 46 44 39 34 30 30 30 27 26 26 25 23 23 24 24 25 24 24 23 20
6 21 34 34 14 23 27 12 15 23 17 14 16 14 11 19 23 31 39 45 48 50 45 44 45 47 52 52 47 44 44 41 37 36 35 33 31 30 28 26 24 25 27 28 27 26 25 21 20
25 23 21 30 10 19 25 15 19 30 32 27 28 12 16 14 7 20 34 36 36 40 40 40 40 45 50 50 45 43 45 44 42 40 39 35 32 30 30 30 28 30 29 29 29 26 26 23 19
26 27 28 31 16 10 20 26 17 25 38 37 32 11 15 16 26 18 17 23 31 36 36 38 34 36 44 47 50 49 48 44 44 42 36 35 33 31 32 32 31 30 32 31 29 27 26 26 24
22 25 18 20 9 13 5 18 16 29 28 37 29 25 20 31 43 44 20 23 28 33 36 33 31 33 34 34 39 46 43 43 41 36 37 37 36 34 34 32 31 34 33 32 29 32 32 33 32
9 9 13 10 6 14 19 8 6 16 43 40 13 48 55 57 59 50 42 25 22 30 36 33 32 34 34 33 34 39 38 38 36 33 33 36 40 39 39 35 35 36 37 36 35 37 37 39 36
10 17 8 14 6 4 9 5 8 11 19 17 26 59 56 51 67 67 60 45 28 22 24 34 36 35 34 32 35 36 36 34 34 28 27 26 27 32 35 38 39 39 36 36 33 32 31 27 25
15 29 11 14 7 4 11 7 8 8 12 14 41 47 49 59 79 71 60 44 45 44 41 19 25 32 35 34 33 30 28 30 31 29 30 30 27 29 33 42 43 40 31 31 32 30 27 24 26
31 13 9 7 5 9 19 4 10 8 8 7 24 48 61 57 70 66 42 38 43 49 46 36 35 27 17 20 24 27 16 17 16 8 7 4 9 12 15 17 20 22 23 23 26 30 29 29 31
29 13 2 2 7 8 19 12 5 15 16 8 10 22 24 38 47 45 42 46 37 53 44 42 38 36 31 15 16 11 8 9 7 12 13 12 9 18 23 28 31 34 36 26 30 33 34 32 32
19 11 7 6 6 7 16 11 11 12 13 10 5 11 17 21 27 31 25 27 28 26 35 37 39 38 42 26 21 22 11 14 15 16 14 16 15 17 24 25 25 30 31 29 26 25 24 22 23
10 9 7 2 4 4 6 0 2 7 18 25 26 24 26 26 21 13 15 15 18 16 28 23 27 22 17 30 36 18 18 17 21 12 14 22 24 24 28 34 29 27 26 22 19 17 14 16 18
6 6 3 3 2 6 6 7 9 9 12 16 22 27 23 26 33 31 26 19 12 13 21 17 16 12 12 20 13 17 13 15 20 21 23 29 25 23 27 31 24 24 20 16 15 13 12 12 12
8 3 5 2 4 3 5 8 4 4 9 14 18 19 22 28 35 36 35 34 27 24 21 17 12 10 9 12 9 5 5 7 10 12 12 13 14 13 17 16 19 21 20 18 15 11 11 12 13
3 7 6 5 2 4 4 8 7 10 11 16 18 20 22 29 34 37 38 38 36 36 33 27 20 15 12 11 7 5 5 4 4 2 6 10 9 11 10 12 15 17 15 13 11 11 10 10 9
Wind_Direction_850mb
244 250 228 236 241 243 242 228 234 206 233 196 142 208 248 302 215 346 189 174 175 176 175 179 177 177 171 161 158 160 161 158 160 168 173 185 195 207 195 156 136 124 120 119 117 108 104 99 94
226 219 200 223 244 238 246 228 219 231 204 245 275 249 249 263 260 289 159 176 175 176 177 178 177 179 169 167 165 166 163 170 174 181 190 207 220 208 183 162 148 127 122 119 113 109 103 95 87
216 195 219 231 234 238 250 216 250 255 253 238 257 247 278 270 276 239 205 177 174 176 177 180 178 180 176 176 172 177 177 180 187 198 205 214 213 188 172 171 154 138 130 126 122 118 110 96 75
193 200 246 240 237 239 257 257 271 244 217 203 219 250 247 254 264 226 196 178 174 174 176 182 181 183 180 178 180 181 185 189 195 202 206 206 193 177 170 169 157 147 140 136 132 127 120 99 70
185 218 239 241 249 251 234 285 270 257 216 213 211 235 252 276 256 221 190 181 176 178 179 182 183 187 183 183 183 184 189 192 195 197 198 191 184 178 173 165 156 150 151 151 151 149 145 132 94
189 229 234 243 248 247 261 267 265 265 270 270 259 270 268 258 233 211 195 182 179 179 180 183 185 191 188 187 188 190 189 188 191 193 189 184 182 182 175 166 160 163 168 170 171 174 171 164 154
234 227 244 256 268 270 268 272 263 263 266 261 263 269 279 245 221 203 192 179 181 183 180 183 185 192 196 196 195 191 189 192 194 191 190 188 191 191 180 173 172 175 183 186 190 194 191 202 221
231 259 256 253 262 259 250 265 272 262 266 282 242 253 256 233 212 193 185 181 181 185 184 181 184 189 196 198 199 194 194 201 201 194 193 195 202 196 184 182 185 192 196 203 204 205 211 221 242
167 246 263 267 261 268 239 248 283 255 267 268 247 249 257 247 207 187 179 178 183 188 191 186 186 185 188 198 203 199 205 211 208 200 199 198 199 180 183 188 196 203 208 213 216 221 228 235 239
215 248 262 292 270 301 285 280 295 284 270 265 266 258 250 235 205 191 185 183 185 185 189 190 194 192 186 193 203 205 208 213 210 206 204 195 193 188 189 203 212 217 219 221 230 239 243 245 242
240 253 308 287 297 297 278 277 272 285 264 268 309 327 263 224 205 201 191 189 188 187 187 191 195 195 190 195 199 206 208 211 210 211 211 207 204 208 212 216 218 218 219 230 247 248 248 246 244
283 271 279 298 293 283 276 276 268 261 268 290 298 298 263 235 215 210 199 190 188 189 191 195 194 197 191 198 200 208 212 214 215 216 217 218 218 220 220 218 218 219 226 241 247 245 252 256 259
262 287 299 305 297 291 278 250 258 267 258 282 305 301 259 243 229 215 210 195 193 193 194 196 193 197 192 199 202 206 214 219 222 224 224 223 224 225 225 225 226 231 239 244 250 249 256 262 262
304 295 292 293 278 277 266 270 250 249 257 263 281 301 268 246 237 225 213 210 204 195 196 192 195 197 201 200 207 207 214 220 226 227 226 223 222 221 225 229 228 233 240 247 252 253 254 259 262
275 283 291 279 270 262 263 252 245 251 260 257 261 292 273 253 229 225 226 219 211 196 192 193 197 200 204 205 213 213 216 223 228 233 232 230 227 227 228 229 233 239 246 250 256 259 262 265 268
290 285 318 320 279 236 217 269 281 247 263 251 257 291 263 264 242 227 225 215 197 187 191 198 200 204 204 210 212 209 219 224 228 235 239 238 238 236 231 233 238 245 252 257 262 265 266 268 267
239 304 303 310 275 270 217 287 95 36 2 324 325 322 341 294 235 212 215 207 194 190 188 199 206 208 207 215 213 212 219 228 234 238 241 240 237 230 232 238 243 250 255 261 265 269 271 268 270
308 307 292 279 298 286 244 229 59 44 34 0 353 324 69 50 346 220 218 211 196 197 196 203 211 213 211 216 220 215 220 228 237 243 243 235 237 236 238 245 249 255 259 264 270 271 269 272 271
303 290 284 284 280 250 231 222 62 39 31 15 0 1 78 52 69 140 190 202 193 195 202 210 214 210 210 211 221 220 221 232 240 240 236 237 242 243 247 253 255 257 264 262 260 263 267 269 270
307 281 303 311 188 218 89 79 86 52 47 26 359 50 43 52 74 96 150 191 208 213 221 222 221 214 212 213 209 218 221 230 238 243 244 247 247 248 252 258 263 264 263 263 259 261 267 266 265
320 301 306 275 90 38 109 96 49 58 53 15 357 64 50 52 57 61 66 102 189 213 215 217 218 222 220 218 216 220 226 234 239 244 251 255 250 249 258 252 257 260 261 261 261 261 262 268 270
293 8 349 340 185 132 357 93 41 35 50 336 20 51 50 47 63 61 42 55 99 156 202 204 205 215 212 220 222 222 229 237 244 250 250 246 244 240 242 245 251 253 260 267 268 267 262 258 262
284 326 323 360 44 129 22 101 13 8 13 326 44 45 56 54 59 60 40 33 49 73 82 133 194 216 217 216 216 218 229 238 244 251 251 245 248 248 255 256 255 255 259 266 269 264 256 262 271
292 297 221 156 326 43 349 339 32 2 300 353 54 67 60 62 65 61 42 44 40 68 62 61 66 81 129 171 200 186 184 197 181 196 211 244 237 252 273 290 285 285 275 279 270 268 270 269 272
340 347 315 81 39 46 343 56 39 334 333 350 27 32 71 58 64 69 50 33 36 62 63 59 58 60 56 66 1 92 168 153 241 275 290 262 292 314 276 284 285 273 284 294 294 281 274 270 265
318 3 18 12 8 21 9 22 5 328 12 36 9 1 27 53 71 62 51 55 46 45 49 64 49 51 56 45 39 44 5 10 334 324 323 319 311 301 308 301 292 289 296 288 268 261 256 253 255
349 33 344 62 141 88 32 320 94 354 45 49 50 44 44 61 73 91 85 90 69 73 66 38 45 43 58 34 37 3 52 15 311 303 334 352 324 297 295 286 278 260 255 253 246 239 242 243 240
311 344 285 23 15 90 80 43 61 41 53 72 66 67 63 72 80 87 97 95 96 83 78 81 90 119 73 29 358 8 322 300 283 280 277 267 256 245 241 235 233 232 224 221 224 222 216 223 229
338 357 28 10 335 121 131 111 55 92 100 86 74 70 78 73 74 78 80 81 83 86 97 103 97 91 102 106 129 134 209 250 245 219 221 251 251 242 235 239 226 221 219 215 209 208 215 225 241
265 327 310 307 147 44 59 122 81 107 95 95 82 74 78 83 83 80 76 72 70 69 73 73 73 75 76 86 101 130 165 184 220 262 236 210 206 219 227 228 229 230 226 222 216 221 235 241 260